Terug naar catalogus

STARLINK-30545

ActiefCommunicatieVLEO
NORAD 58000·PAYLOAD·🇺🇸 United States

Gelanceerd Oct 5, 2023 vanaf Cape Canaveral Space Force Station

Loading…

Volgende Passages (komende 24 uur)

TLE

VersSource: CelesTrak SupGP

Epoch: Sep 14, 2026, 20:43 UTC

1 58000C 23153K   26257.86368056  .00013240  00000+0  47962-3 0  2578
2 58000  43.0001  78.2963 0001333 271.2488  58.0877 15.27567653    13

Volg STARLINK-30545 in realtime met AllMySat

Download on the App Store